Regional Weather Roundup
Issued by NWS

Home | Current Version | Previous Version | Graphics & Text | Print | Product List | Glossary On
Versions: 1 2 3 4 5 6 7 8 9 10 11 12 13 14 15 16 17 18 19 20 21 22 23 24 25 26 27 28 29 30 31 32 33 34 35 36 37 38 39 40 41 42 43 44 45 46 47 48 49 50
260
ASUS43 KMKX 140920
RWRWI

WISCONSIN REGIONAL WEATHER ROUNDUP
NATIONAL WEATHER SERVICE MILWAUKEE/SULLIVAN WI
300 AM CST SUN FEB 14 2016

NOTE: "FAIR" INDICATES FEW OR NO CLOUDS BELOW 12,000 FEET WITH NO
SIGNIFICANT WEATHER AND/OR OBSTRUCTIONS TO VISIBILITY.

WIZ001-002-006>008-014>016-023>028-141000-
NORTHWEST WISCONSIN

CITY           SKY/WX    TMP DP  RH WIND       PRES   REMARKS
SUPERIOR ARPT  CLOUDY   -12 -17  78 CALM      30.29F
ASHLAND        CLOUDY   -14 -19  79 CALM      30.31F
HAYWARD        CLOUDY   -13 -18  78 CALM      30.26F
SIREN          CLOUDY     1 -11  55 SE5       30.25F WCI  -8
CUMBERLAND     CLOUDY    -2 -15  55 SE6       30.25S WCI -14
RICE LAKE      CLOUDY    -1 -13  58 SE8       30.28F WCI -16
CHETEK         CLOUDY    -8 -15  72 CALM      30.29F
LADYSMITH      CLOUDY    -8 -16  68 E7        30.29F WCI -22
EAU CLAIRE     CLOUDY    -4 -13  65 CALM      30.29F
MENOMONIE      CLOUDY    -1 -11  62 E3        30.28F
NEW RICHMOND   CLOUDY     5  -7  56 SE6       30.24F WCI  -5
OSCEOLA        CLOUDY     6  -6  55 SE10      30.26F WCI  -8
$$

WIZ003>005-009-010-017-018-141000-
NORTH CENTRAL WISCONSIN

CITY           SKY/WX    TMP DP  RH WIND       PRES   REMARKS
MANITOWISH WTR CLOUDY   -22 -28  74 CALM      30.25S
ARBOR VITAE    CLOUDY   -12 -18  75 CALM      30.25F
WOODRUFF       CLOUDY   -12 -18  75 CALM      30.25F
RHINELANDER    CLOUDY   -16 -22  74 CALM      30.27F
EAGLE RIVER    CLOUDY   -20 -27  69 CALM      30.26F
LAND O LAKES   CLOUDY   -24 -30  73 CALM      30.26F
PHILLIPS       CLOUDY   -22 -27  76 CALM      30.26F
TOMAHAWK       PTCLDY   -22 -28  72 CALM      30.29S
MEDFORD        CLOUDY    -8 -16  68 CALM      30.26F
MERRILL        CLOUDY   -18 -26  69 CALM      30.32F
$$

WIZ029-030-035-036-043>047-141000-
CENTRAL WISCONSIN

CITY           SKY/WX    TMP DP  RH WIND       PRES   REMARKS
WAUSAU         CLOUDY   -11 -17  75 E3        30.31F
MOSINEE        CLOUDY    -9 -15  77 CALM      30.32F
MARSHFIELD     CLOUDY    -6 -13  71 E3        30.29F
STEVENS POINT  CLOUDY   -16 -21  76 CALM      30.34F
WAUPACA        CLOUDY   -11 -17  74 CALM      30.38F
WAUTOMA        CLOUDY   -14 -21  70 CALM      30.38F
WISC RAPIDS    CLOUDY    -9 -15  75 SE5       30.35F WCI -20
CAMP DOUGLAS   CLOUDY   -12 -14  88 SE1       30.33F
$$

WIZ011>013-019>022-031-037>040-048>050-141000-
NORTHEAST WISCONSIN

CITY           SKY/WX    TMP DP  RH WIND       PRES   REMARKS
ANTIGO         PTCLDY   -17 -22  78 CALM      30.29F
SHAWANO        CLOUDY    -6 -11  78 CALM      30.39F
OCONTO         CLOUDY   -12 -17  79 CALM      30.42F
STURGEON BAY   CLOUDY    -2 -11  65 CALM      30.40F
GREEN BAY      PTCLDY    -8 -13  78 CALM      30.41F
MANITOWOC      CLOUDY    -3 -11  68 W3        30.43F
APPLETON       CLOUDY    -2  -8  78 E3        30.35F
CLINTONVILLE   CLOUDY    -9 -15  77 CALM      30.38F
OSHKOSH        CLOUDY    -7 -13  75 CALM      30.38F
$$

WIZ032>034-041-042-053>061-141000-
SOUTHWEST WISCONSIN

CITY           SKY/WX    TMP DP  RH WIND       PRES   REMARKS
LA CROSSE      CLOUDY     7  -5  57 E7        30.32F WCI  -5
SPARTA         CLOUDY    -6 -11  77 CALM      30.33F
VIROQUA        CLOUDY     7  -5  59 SE12      30.26F WCI  -9
BOSCOBEL       CLOUDY     7  -2  66 NE3       30.35F
PRAIRIE DU CHI CLOUDY    11  -2  57 E8        30.31F WCI  -1
PLATTEVILLE    CLOUDY    12   2  64 SE10      30.30F WCI  -1
$$

WIZ056-057-062-063-064-067-068-141000-
SOUTH CENTRAL WISCONSIN

CITY           SKY/WX    TMP DP  RH WIND       PRES   REMARKS
REEDSBURG      CLOUDY    -6 -10  81 CALM      30.34F
BARABOO/DELLS  CLOUDY    -2 -10  67 E3        30.34F
LONE ROCK      CLOUDY     6  -2  69 E9        30.35F WCI  -8
MINERAL POINT  CLOUDY    12   0  57 SE8       30.29F WCI   1
MADISON        CLOUDY     5  -5  63 SE7       30.37F WCI  -7
MIDDLETON      CLOUDY     9  -2  62 SE9       30.36F WCI  -5
WATERTOWN      PTCLDY     0  -5  79 CALM      30.38F
MONROE         CLOUDY    12   1  62 SE9       30.32F WCI   0
JANESVILLE     CLOUDY    12   1  62 SE6       30.38F WCI   3
$$

WIZ051-052-058>065-066-070>072-141000-
SOUTHEAST WISCONSIN

CITY           SKY/WX    TMP DP  RH WIND       PRES   REMARKS
MILWAUKEE      CLOUDY     4  -6  63 CALM      30.40F
WAUKESHA       CLOUDY     0  -6  78 CALM      30.39F
MILWAUKEE/TIMM CLOUDY     1  -6  71 CALM      30.41F
RACINE         CLOUDY     2  -6  69 CALM      30.42F
BURLINGTON     CLOUDY    -2  -6  84 CALM      30.39F
KENOSHA        CLOUDY     2  -4  76 CALM      30.40F
FOND DU LAC    CLOUDY    -5 -11  75 CALM      30.39F
SHEBOYGAN      CLOUDY    -2  -8  76 CALM      30.41F
WEST BEND      PTCLDY    -4  -9  77 CALM      30.39F
JUNEAU         PTCLDY    -1  -8  69 E5        30.38F WCI -11
$$

LSZ147-162-141000-
LAKE SUPERIOR

STATION/POSITION TIME  TEMP    WIND        PRES    WAVE
                       AIR SEA DIR/SP/G            HT/PER
                 (UTC) (F)     (DEG/KT/KT) (MB)    (FT/S)
DEVILS ISLAND    0900    6     200/  8/ 10 1028.3F
SAXON HARBOR     0840  -17                 1026.8F
$$

LMZ867-665-643>646-141000-
LAKE MICHIGAN

STATION/POSITION TIME  TEMP    WIND        PRES    WAVE
                       AIR SEA DIR/SP/G            HT/PER
                 (UTC) (F)     (DEG/KT/KT) (MB)    (FT/S)
CHAMBERS ISLAND  0800   -2     170/  2/  4 1029.8F
SISTER BAY       0805    1        CALM       N/A
ALGOMA LAKESHORE 0841             CALM       N/A
KEWAUNEE LAKESHO 0800    0     300/  8/  8 1029.7F
SHEBOYGAN LAKESH 0900    7     280/  3/  4 1031.8F
PORT WASHINGTON  0840    4     280/  2/  3 1031.2F
MILWAUKEE LAKESH 0810   10     340/  3/  3   N/A
KENOSHA   LAKESH 0900   10      CALM  /  5 1029.5F
$$

TC  - TEMPERATURE IN CELSIUS
VSB - VISIBILITY IN STATUTE MILES
WCI - WIND CHILL INDEX
HX  - HEAT INDEX





USA.gov is the U.S. government's official web portal to all federal, state and local government web resources and services.